GFSSGP_prec_cloud_198.txt.gz
Cloud_Cover
100 100 89 100 100 100 100 85 94 45 72 100 61 74 83 95 100 65 100 88 96 100 100 100 100 50 100 100 97 68 6 5 6 56 86 100 100 81 17 28 20 65 85 5 5 5 5 5 5
100 100 100 100 100 100 78 75 80 76 32 8 28 76 100 100 100 100 100 100 100 98 73 83 100 100 100 100 58 8 13 5 5 6 5 38 74 77 100 85 11 7 100 5 5 5 5 5 5
100 100 100 100 100 100 100 92 73 5 60 48 36 52 77 96 100 100 89 65 52 85 80 100 100 100 100 52 6 5 10 5 5 5 52 14 100 100 100 100 8 50 98 24 5 42 5 5 5
100 100 100 100 100 100 100 15 42 25 35 39 100 100 46 100 74 52 71 74 99 99 96 100 100 100 5 5 5 5 5 5 5 5 5 35 48 5 6 15 92 21 6 5 5 5 6 5 5
100 100 100 100 100 100 85 100 100 100 14 92 74 69 89 100 93 62 98 100 100 88 85 81 57 100 6 8 5 6 5 5 5 5 5 4 1 6 6 5 5 5 5 5 5 5 5 5 5
100 100 100 100 100 100 100 29 100 88 17 73 100 86 92 100 92 90 74 90 90 63 76 45 36 55 5 5 5 11 10 8 5 5 5 5 5 5 5 5 5 5 5 5 5 5 22 87 88
100 100 100 100 100 100 75 49 97 100 95 80 100 97 86 100 78 93 100 100 72 39 5 5 69 5 5 5 8 5 5 5 5 5 5 3 5 7 10 13 5 5 78 99 100 100 100 65 30
100 100 100 100 100 100 96 84 80 100 100 100 100 100 100 100 80 81 93 100 69 50 19 5 41 5 5 5 5 5 5 5 5 0 59 0 17 100 100 34 1 0 0 0 0 2 5 5 5
94 100 83 100 100 90 100 3 59 50 100 100 100 100 100 96 40 72 57 53 18 12 18 18 6 100 3 5 0 5 5 5 1 0 85 9 98 80 46 56 12 5 4 3 11 2 10 10 100
99 100 91 48 51 64 100 85 1 63 100 100 99 44 68 54 7 60 69 14 23 40 5 22 0 11 4 1 1 4 1 0 0 27 76 100 100 0 2 64 3 0 23 49 100 100 70 99 100
100 86 100 58 74 100 9 10 24 34 89 76 58 38 55 5 6 9 40 5 5 5 28 45 5 0 7 5 4 90 26 94 9 95 69 55 14 81 0 38 56 10 21 82 43 100 33 54 100
9 4 87 8 3 94 56 75 5 100 100 14 5 36 5 5 5 56 5 5 5 25 100 9 5 2 5 5 100 0 100 100 90 0 0 58 0 100 60 0 97 2 100 41 8 11 93 100 65
69 94 2 1 81 6 2 46 4 3 62 6 7 20 11 5 44 84 58 16 14 13 49 36 1 0 5 64 81 81 80 90 80 96 2 0 69 100 100 94 56 0 5 7 0 2 0 7 99
92 28 72 66 0 0 55 0 20 0 0 1 4 28 10 5 67 7 26 17 3 84 5 0 0 0 4 2 0 65 10 0 17 2 0 1 0 45 0 91 38 26 0 0 0 0 0 0 7
51 20 5 71 3 61 100 18 100 0 0 0 3 20 10 3 8 41 6 86 26 5 5 1 0 0 0 0 0 1 1 97 0 0 0 0 0 17 82 26 92 60 0 97 4 2 92 95 2
100 77 98 19 13 44 0 85 100 24 0 0 0 8 36 0 0 3 0 3 5 15 4 5 2 7 0 0 0 30 100 0 70 0 0 0 0 63 25 24 0 0 33 0 0 0 0 67 28
99 98 26 84 100 36 17 46 97 96 16 0 0 3 100 79 0 0 1 0 5 29 4 5 94 0 10 0 0 43 1 77 58 100 0 0 0 68 32 3 0 1 20 8 0 0 2 8 0
91 97 95 82 100 51 32 2 5 79 15 3 0 12 56 85 100 78 84 3 0 0 3 0 100 0 0 0 0 0 0 7 0 10 0 0 0 1 67 92 6 0 10 0 1 0 0 0 0
18 82 100 99 70 60 36 11 0 50 21 0 0 0 1 8 100 100 100 57 0 33 0 0 10 0 0 0 0 1 99 6 99 2 0 0 0 0 0 12 65 1 37 0 0 0 0 0 0
64 100 100 100 100 100 10 65 0 1 0 0 0 0 0 0 85 93 68 59 48 0 0 0 0 0 0 0 0 13 92 98 51 17 0 0 0 0 0 0 0 0 0 0 0 0 0 0 42
97 100 97 82 100 94 16 1 94 2 0 0 0 0 0 0 2 23 76 100 100 0 0 0 0 0 0 0 0 1 0 1 0 0 0 0 0 0 0 0 0 0 0 0 0 0 0 0 0
88 98 71 100 84 64 70 85 100 25 0 0 0 0 0 0 22 0 0 63 100 24 0 0 0 0 0 0 14 0 0 0 0 0 0 0 0 0 0 0 0 0 0 34 0 0 0 0 0
0 11 93 47 49 6 9 8 82 35 0 0 0 0 0 0 0 0 0 6 100 59 0 0 0 0 0 0 2 0 0 0 0 0 0 0 0 0 0 0 0 0 0 0 0 0 0 0 0
0 5 98 62 80 20 1 28 75 90 48 4 0 0 0 0 0 0 0 0 77 27 0 0 0 0 0 0 0 0 0 0 0 0 0 0 0 0 0 0 0 0 0 7 0 5 4 0 0
0 0 8 40 55 5 0 54 96 100 100 100 19 0 0 0 0 0 0 0 0 15 0 0 0 0 0 0 0 0 0 0 0 0 0 0 0 0 0 0 3 0 10 2 2 5 6 5 0
0 0 8 6 86 3 80 91 97 77 100 100 100 0 0 0 0 0 0 0 0 0 0 0 0 0 0 0 0 0 0 0 0 0 0 0 0 0 0 0 1 5 0 5 0 16 7 10 2
0 0 1 48 97 100 58 85 42 100 100 100 64 0 0 0 0 0 0 0 0 0 0 0 0 0 0 0 0 0 0 0 0 0 0 0 0 0 0 0 4 76 5 6 26 5 5 49 23
0 0 0 9 4 86 4 100 40 84 89 12 22 0 0 0 0 0 0 0 0 0 0 0 0 0 0 0 0 0 0 0 0 0 0 0 0 0 0 0 5 4 8 70 5 8 5 42 81
0 0 0 1 2 74 98 100 100 99 9 26 41 0 0 0 0 0 0 0 0 0 0 0 0 0 0 0 0 0 0 0 0 0 0 0 0 0 0 0 38 37 58 98 0 1 5 18 83
0 0 0 0 1 6 100 100 100 13 40 100 0 0 0 0 0 0 0 0 0 0 0 0 0 0 0 0 0 0 0 0 0 0 0 0 0 2 5 4 58 100 97 98 0 0 5 6 5

GFSSGP_prec_cloud_201.txt.gz
Cloud_Cover
100 100 100 100 100 100 100 100 100 100 98 100 100 100 99 77 99 100 98 78 66 96 98 65 68 100 99 9 6 6 5 5 5 5 100 100 100 19 97 100 34 81 73 96 16 6 5 5 5
100 100 100 100 100 100 96 100 100 100 100 90 100 100 95 96 100 68 90 100 100 73 82 20 82 19 84 5 5 5 5 5 9 5 26 100 84 98 32 52 80 49 96 99 54 61 65 5 5
100 100 100 100 100 100 100 91 100 98 94 100 100 99 96 100 59 43 92 100 82 54 26 43 64 5 42 0 5 10 4 4 5 5 0 16 5 5 5 12 7 41 13 5 24 92 100 58 5
100 100 100 100 100 100 100 100 100 100 76 100 97 100 100 100 77 79 96 36 97 64 26 52 5 5 0 9 5 5 5 5 8 5 5 2 3 5 5 5 5 5 5 5 6 73 93 99 36
100 100 100 100 100 100 100 87 100 99 98 100 94 54 72 92 99 100 80 76 70 60 67 74 5 5 1 5 5 5 3 5 6 100 61 97 5 5 5 20 30 21 5 6 5 26 46 8 5
100 100 100 100 100 100 100 100 100 100 100 92 71 12 96 100 100 100 85 62 88 57 75 10 5 4 4 5 7 5 5 5 67 100 100 100 22 57 58 96 63 1 6 5 38 26 34 53 5
100 100 100 100 100 100 100 100 100 100 100 100 60 49 87 100 100 63 67 58 78 45 56 39 5 5 4 5 5 5 5 4 26 99 100 100 100 96 100 100 8 0 0 0 2 36 77 30 35
100 100 100 100 100 100 100 100 90 100 99 32 100 100 100 100 100 96 93 84 50 43 63 46 5 5 5 5 5 3 0 8 100 100 86 100 98 100 100 3 0 5 52 3 0 5 7 12 100
100 100 100 100 100 100 100 100 22 100 83 85 48 96 97 100 98 57 96 96 13 5 6 6 5 2 0 0 0 3 89 3 52 58 94 99 2 86 39 2 1 2 2 11 89 26 88 69 89
100 100 100 100 100 100 100 100 100 78 74 90 13 74 69 92 71 20 12 15 5 5 5 5 5 0 0 0 0 94 75 0 0 5 2 5 4 90 41 8 0 0 0 0 50 100 99 99 100
96 100 100 58 97 100 97 88 99 26 30 1 5 5 14 6 5 5 5 5 15 5 5 5 2 0 0 0 0 4 8 5 2 3 0 1 78 55 5 5 3 0 0 0 0 84 100 100 87
9 79 90 98 94 61 100 82 100 93 88 3 4 5 3 5 5 5 5 9 92 5 6 5 0 0 2 77 39 11 67 1 2 0 0 19 100 100 11 0 2 0 0 0 0 0 0 42 45
100 85 100 91 71 5 38 100 22 15 87 2 0 0 0 2 5 5 5 25 5 10 37 5 0 1 14 18 50 15 9 31 70 0 22 100 99 53 0 0 0 0 0 1 0 0 0 15 0
43 33 82 10 59 19 4 3 28 2 0 0 0 0 0 0 4 5 4 0 41 20 39 0 0 0 0 90 14 74 0 0 0 0 1 94 5 38 0 1 100 1 29 10 50 11 18 100 5
48 86 79 50 24 8 3 79 23 0 0 0 0 0 0 0 4 5 5 82 0 5 4 0 0 0 0 0 22 4 100 0 0 0 0 0 0 0 0 0 0 0 0 20 25 0 45 2 3
41 96 88 86 96 3 10 51 4 0 0 0 0 0 0 0 0 0 13 85 0 4 3 0 0 0 0 0 0 1 0 78 0 0 0 0 0 0 0 0 0 0 0 0 0 0 0 0 0
70 100 82 100 91 5 22 1 5 5 33 11 8 0 0 0 0 0 4 62 0 0 0 0 0 0 0 0 0 0 0 60 0 0 0 0 0 0 0 0 0 0 0 0 0 0 0 0 0
56 64 92 44 63 5 11 4 5 2 53 82 15 5 0 0 0 0 0 0 0 0 0 0 0 0 0 0 0 0 0 28 0 0 0 0 0 0 0 0 0 0 0 0 0 0 0 0 0
10 10 76 90 88 4 13 19 0 33 3 2 5 7 4 0 0 0 0 0 0 0 0 0 0 0 0 0 0 0 0 3 98 0 0 0 0 0 0 0 0 0 0 0 0 0 0 0 0
8 5 42 100 97 8 100 76 5 1 4 0 28 0 0 0 0 0 2 1 0 0 0 0 0 0 0 0 0 0 0 30 64 0 0 0 0 0 0 0 0 0 0 0 0 0 0 0 0
0 5 50 100 92 100 80 88 5 2 2 0 0 0 0 0 0 2 85 54 1 0 0 0 0 0 0 0 0 0 0 83 0 0 0 0 0 0 0 0 0 0 0 0 0 0 0 0 0
0 2 100 100 90 100 99 97 97 0 3 0 0 0 0 0 0 0 0 27 86 0 0 0 0 0 0 0 0 0 0 0 0 0 0 0 0 0 0 0 0 0 0 4 0 0 0 5 2
8 62 57 100 96 34 87 68 0 3 20 0 0 0 0 0 0 0 0 0 0 0 0 0 0 0 0 0 0 0 0 0 0 0 0 0 0 0 0 0 0 0 0 5 5 5 5 5 5
4 22 67 100 100 100 24 15 56 5 69 3 0 2 0 0 0 0 0 0 0 0 0 0 0 0 0 0 0 0 0 0 0 0 0 0 0 0 0 0 0 0 0 0 5 5 5 0 2
0 78 100 21 97 52 2 0 11 99 97 74 100 70 0 0 0 0 0 0 0 0 0 0 0 0 0 0 0 0 0 0 0 0 0 0 0 0 0 0 0 0 0 0 2 1 0 0 4
0 0 14 5 4 0 72 30 100 17 100 100 100 100 45 0 0 0 0 0 0 0 0 0 0 0 0 0 0 0 0 0 0 0 0 0 0 0 0 0 0 0 0 0 0 0 0 0 0
0 0 0 0 0 29 100 20 22 15 85 100 100 100 100 5 0 0 0 0 0 0 0 0 0 0 0 0 0 0 0 0 0 0 0 0 0 0 4 0 0 0 0 0 0 0 0 0 0
0 0 0 0 0 5 85 100 65 88 98 100 100 99 77 0 0 0 0 0 0 0 0 0 0 0 0 0 0 0 0 0 0 0 0 0 0 0 0 1 0 0 0 0 0 0 0 0 1
0 0 0 0 0 3 30 3 99 97 100 98 72 41 100 24 0 0 0 0 0 0 0 0 0 0 0 0 0 0 0 0 0 0 0 0 0 0 0 0 0 0 0 0 0 0 0 0 0
5 0 0 0 0 0 4 5 8 28 92 100 100 99 78 8 0 0 0 0 0 0 0 0 0 0 0 0 0 0 0 0 0 0 0 0 0 0 0 1 0 0 0 1 0 0 0 0 2

GFSSGP_prec_cloud_207.txt.gz
Cloud_Cover
100 100 100 100 100 100 100 100 100 100 88 96 100 100 100 92 100 100 100 93 100 87 59 5 4 7 0 5 5 5 5 5 5 5 5 14 94 83 50 5 5 47 51 28 5 5 5 5 5
100 100 89 100 100 100 100 100 100 100 100 100 98 100 100 100 99 100 100 92 100 91 96 5 0 0 8 7 6 5 5 5 5 5 5 5 25 98 15 5 5 32 6 5 10 16 33 88 75
100 100 100 100 100 95 100 100 100 100 100 100 100 99 100 100 100 100 100 100 100 62 5 5 0 2 2 5 9 6 5 5 6 6 5 63 5 8 17 66 41 12 47 6 26 74 34 73 99
100 100 100 100 100 100 100 100 100 100 100 100 100 100 97 100 100 100 100 78 87 23 5 5 1 4 4 5 5 5 10 37 5 8 12 48 15 52 91 100 92 100 100 100 100 100 100 100 100
98 100 100 100 100 93 94 99 100 99 100 100 100 100 100 100 100 99 90 66 93 31 5 5 1 3 5 7 5 12 12 5 96 19 22 8 33 18 86 100 91 80 100 100 84 94 32 100 100
100 100 100 100 100 100 100 100 100 100 100 100 100 100 100 100 100 100 52 84 48 9 28 5 0 3 5 0 5 5 5 4 73 100 7 15 65 8 5 2 0 4 5 68 99 82 50 96 98
100 100 100 100 100 100 100 70 100 100 100 100 100 100 100 100 100 100 13 84 44 16 5 5 1 0 4 5 15 6 0 2 5 42 8 94 92 4 2 5 5 28 5 29 99 85 100 100 100
100 100 100 100 100 100 100 96 67 100 100 100 100 100 100 100 96 79 5 90 20 9 5 5 0 0 0 15 22 10 5 5 4 3 15 7 6 0 0 4 1 71 99 26 100 100 100 100 100
100 100 100 100 100 100 100 100 100 100 99 100 100 100 100 100 97 97 22 23 19 8 5 1 0 0 1 2 0 0 5 2 1 5 4 3 0 0 0 0 0 31 100 97 100 100 100 100 100
100 100 100 100 100 100 100 100 100 100 96 97 100 100 100 82 100 55 23 8 5 5 5 3 0 0 1 3 0 0 0 0 0 0 0 0 0 0 0 0 0 1 12 100 100 100 100 100 100
100 100 100 100 78 100 100 91 87 98 97 49 100 100 100 100 100 36 6 40 5 5 2 4 0 0 5 5 4 5 0 0 0 0 0 0 0 0 0 0 0 0 0 31 100 100 100 100 100
100 100 100 100 100 100 100 99 91 100 100 100 100 100 100 92 10 5 5 5 5 5 1 5 0 0 2 62 5 4 0 0 1 0 0 0 0 0 0 0 5 5 3 2 51 97 100 100 100
49 100 100 98 60 100 98 96 97 100 100 100 100 100 83 5 5 5 5 3 0 5 1 2 1 0 0 0 0 2 0 0 0 0 0 0 0 0 0 0 1 10 4 0 3 2 2 49 57
30 82 97 98 100 99 100 92 98 100 100 100 69 6 5 5 5 5 5 1 1 5 1 0 5 0 0 5 0 0 0 0 0 0 0 0 0 0 0 0 0 0 79 60 0 0 0 0 2
1 85 92 100 100 98 50 28 97 74 100 94 12 5 5 5 5 5 5 2 0 2 1 1 0 5 0 0 0 0 0 0 0 0 0 0 0 0 0 0 9 0 0 0 12 0 0 0 0
5 35 100 98 100 91 100 84 95 100 78 26 0 5 5 5 5 5 5 5 0 1 1 4 5 0 0 0 0 0 0 0 0 0 0 0 0 0 0 0 0 0 0 0 0 0 0 0 0
4 9 78 79 100 100 72 28 5 44 15 27 0 0 0 0 0 7 7 5 1 1 0 5 3 0 0 0 0 0 0 0 0 0 0 0 0 0 0 0 0 0 0 0 0 0 0 1 1
4 5 10 48 97 56 52 9 1 5 20 99 71 0 0 0 0 1 6 5 5 5 0 0 2 0 0 0 0 0 0 0 0 0 0 0 0 0 0 0 0 0 0 0 0 0 0 0 0
5 36 30 11 22 15 46 26 0 0 3 55 100 7 0 0 0 2 1 4 5 5 0 0 2 0 0 0 0 0 0 0 0 0 0 0 0 0 0 0 0 0 0 0 0 0 0 0 0
5 51 40 24 5 5 90 100 100 5 0 0 0 5 29 0 4 1 0 0 0 4 0 0 0 0 0 0 0 0 0 0 0 0 0 0 0 0 0 0 0 0 0 0 1 2 1 1 1
5 6 95 87 67 81 11 92 5 0 4 0 0 0 0 0 1 0 0 0 0 0 0 0 0 0 0 0 0 0 0 0 0 0 0 0 0 0 0 0 0 0 0 0 1 6 17 62 5
5 5 83 10 22 9 6 10 5 3 3 4 5 5 0 0 0 4 0 0 0 0 0 0 0 0 0 0 0 0 0 0 0 0 0 0 0 0 0 0 0 0 0 0 0 0 1 5 5
0 92 5 5 65 80 23 18 97 5 5 47 66 7 2 0 0 0 0 0 0 0 0 0 0 0 0 0 0 0 0 0 0 0 0 0 0 0 0 0 0 0 0 0 0 0 0 5 5
0 95 10 5 94 100 100 96 3 19 5 48 5 97 16 0 0 0 0 0 0 0 0 0 0 0 0 0 0 0 0 0 0 0 0 0 0 0 0 0 0 0 2 0 0 0 0 5 5
0 2 22 27 57 100 100 65 97 5 75 12 12 5 5 3 0 0 0 0 0 0 0 0 0 0 0 0 0 0 0 0 0 0 0 0 0 0 0 0 0 4 0 0 0 0 0 0 5
0 0 0 0 99 100 82 100 100 92 34 0 5 5 7 0 0 0 0 0 0 0 0 0 0 0 0 0 0 0 0 0 0 0 0 0 0 0 0 0 0 0 0 0 0 0 0 2 4
0 0 0 0 0 84 25 100 100 100 27 2 0 0 5 4 0 0 0 0 0 0 0 0 0 0 0 0 0 0 0 0 0 0 0 0 0 0 0 0 0 2 0 0 0 0 0 0 1
0 0 0 0 0 15 4 17 100 100 100 6 0 2 93 13 0 0 0 0 0 0 0 0 0 0 0 0 0 0 0 0 0 0 0 0 0 0 0 0 0 1 0 3 0 0 0 0 0
0 0 0 0 0 0 6 0 100 100 100 6 2 31 30 91 68 0 0 0 0 0 0 0 0 0 0 0 0 0 0 0 0 0 0 0 0 0 0 3 6 2 6 5 1 0 0 0 0
0 0 0 0 0 0 0 24 100 100 41 0 0 5 24 6 45 0 0 0 0 0 0 0 0 0 0 0 0 0 0 0 0 0 0 0 0 0 5 0 6 6 1 1 0 0 0 0 0

GFSSGP_prec_cloud_210.txt.gz
Cloud_Cover
100 100 100 100 100 100 100 100 100 100 100 100 100 100 100 100 100 92 78 17 86 5 5 0 0 13 3 5 5 5 5 16 5 9 5 5 76 17 38 80 100 100 78 86 86 82 27 5 5
100 100 100 100 100 100 88 86 100 100 100 100 100 100 100 100 99 95 69 67 26 15 2 0 0 4 5 5 5 5 5 6 27 5 6 14 7 38 98 100 100 100 16 35 19 62 34 23 9
100 100 98 100 100 98 72 99 100 100 100 100 100 100 100 100 98 98 95 16 12 21 5 5 7 5 20 5 5 5 10 5 5 10 8 31 52 5 97 100 100 69 16 9 91 62 26 35 41
100 100 85 100 100 100 96 84 100 100 100 99 100 100 100 100 95 79 87 7 6 9 5 0 4 5 5 4 4 5 5 90 7 11 5 5 14 68 100 100 100 100 100 100 100 100 83 96 92
100 100 100 100 100 100 100 99 79 31 98 100 100 100 100 100 99 92 71 5 21 12 6 0 1 5 5 5 5 1 5 66 100 59 73 100 100 23 0 22 43 42 100 100 100 100 74 95 63
100 100 100 100 100 94 95 97 30 60 97 100 100 100 100 100 95 22 36 41 10 18 2 0 4 5 7 12 1 2 5 39 99 29 100 61 6 0 1 47 6 4 4 90 100 100 100 100 100
100 100 100 100 100 94 91 92 59 100 60 97 69 100 99 100 98 16 45 68 27 17 7 0 0 8 5 0 1 5 5 5 84 7 5 0 0 0 5 67 25 48 48 100 82 69 45 22 11
100 100 100 100 100 100 77 51 61 42 100 94 100 97 86 100 96 69 69 58 53 21 0 16 0 0 30 1 5 5 0 0 0 0 2 0 0 0 5 5 5 84 100 100 100 100 98 100 100
100 100 100 100 100 100 99 59 99 99 100 100 100 100 100 100 100 64 99 100 88 30 0 18 5 0 5 0 1 5 1 0 0 0 0 0 0 0 0 5 56 100 100 94 100 100 100 100 100
100 100 100 100 100 100 100 100 92 94 100 100 93 100 100 100 100 100 70 100 100 44 0 0 7 0 1 0 3 0 0 0 0 0 0 0 0 0 0 0 8 81 100 100 100 100 100 100 100
100 100 100 100 100 100 100 98 99 51 33 88 100 100 100 100 100 84 5 8 9 3 0 0 0 4 5 5 1 0 0 0 0 0 0 0 0 0 0 0 0 7 47 100 100 100 100 100 100
100 83 100 100 100 100 100 100 88 66 5 95 100 100 100 100 43 5 5 5 5 4 0 0 0 2 5 5 1 0 0 0 0 0 0 0 0 0 0 0 0 0 0 13 86 95 100 100 100
92 81 72 100 100 100 100 94 100 87 99 85 100 100 96 33 5 5 5 5 5 4 0 3 0 2 4 1 5 0 0 0 0 0 0 0 0 0 0 0 0 0 0 0 0 0 0 0 1
59 96 89 55 100 100 100 100 94 100 100 97 100 100 71 5 24 5 5 5 5 4 1 0 1 1 0 0 0 0 0 0 0 0 0 0 0 0 0 0 0 0 0 0 0 0 0 0 0
5 75 94 99 99 100 100 100 100 99 100 70 32 66 26 5 5 5 5 5 5 1 4 0 2 5 2 0 0 0 0 0 0 0 0 0 0 0 0 0 0 0 0 0 6 0 0 0 0
5 6 100 62 93 100 100 100 100 100 93 5 0 5 5 5 5 5 5 5 3 4 0 0 4 5 0 0 0 0 0 0 0 0 0 0 0 0 0 0 0 0 0 0 3 5 5 4 0
5 5 72 100 16 88 100 99 100 98 89 6 1 0 0 0 5 5 5 5 1 5 0 4 4 5 3 0 0 0 0 0 0 0 0 0 0 0 0 0 0 0 0 0 0 3 5 5 4
5 0 4 100 82 81 96 100 54 95 97 17 16 4 0 0 0 5 5 5 4 5 0 1 0 5 3 0 0 0 0 0 0 0 0 0 0 0 0 0 0 0 0 0 0 4 5 5 5
5 5 0 5 98 36 100 100 100 70 4 58 61 0 0 0 0 3 5 2 5 5 1 0 2 3 5 0 0 0 0 0 0 0 0 0 0 0 0 0 0 0 0 0 0 5 5 5 5
5 10 48 7 5 5 19 20 77 5 0 0 0 0 0 0 0 0 0 4 99 5 5 0 0 0 0 0 0 0 0 0 0 0 0 0 0 0 0 0 0 0 0 0 0 0 5 0 5
5 5 83 51 6 5 3 33 2 0 3 0 0 3 0 0 0 0 4 5 1 0 0 0 0 0 0 0 0 0 0 0 0 0 0 0 0 0 0 0 0 0 0 0 0 5 5 5 15
0 5 97 46 35 25 4 99 7 0 0 0 5 5 5 0 0 0 0 0 0 0 0 0 0 0 0 0 0 0 0 0 0 0 0 0 0 0 0 0 0 0 0 0 0 0 4 5 5
0 5 78 100 44 5 2 2 95 5 5 5 96 9 5 5 0 0 0 5 0 0 0 0 0 0 0 0 0 0 0 0 0 0 0 0 0 0 0 0 0 0 0 0 0 0 0 5 5
4 0 5 5 43 0 69 0 5 22 5 2 5 55 32 5 0 0 0 3 0 0 0 0 0 0 0 0 0 0 0 0 0 0 0 0 0 0 0 0 0 0 0 0 0 0 0 1 26
5 0 1 4 5 24 14 5 37 93 17 24 31 5 4 4 0 0 0 0 0 0 0 0 0 0 4 0 0 0 0 0 0 0 0 0 0 0 0 0 0 0 0 0 0 0 0 0 0
0 0 0 0 0 5 1 23 84 98 60 90 100 5 5 0 0 0 0 0 0 0 0 0 0 0 0 0 0 0 0 0 0 0 0 0 0 0 0 0 0 0 0 0 0 0 0 0 0
0 0 0 0 0 0 60 100 98 100 100 100 91 1 0 4 0 0 0 0 0 0 0 0 0 0 0 0 0 0 0 0 0 0 0 0 0 0 0 0 0 0 0 0 0 0 0 0 0
0 0 0 0 0 1 87 61 47 100 100 97 62 5 0 52 4 0 0 0 0 0 0 0 0 0 0 0 0 0 0 0 0 0 0 0 0 0 0 0 0 0 0 0 0 0 0 0 0
0 0 0 0 0 0 22 85 90 100 100 96 55 90 0 73 5 1 0 0 0 0 0 0 0 0 0 0 0 0 0 0 0 0 0 0 0 1 0 0 0 0 4 9 0 0 0 0 0
0 0 0 0 0 0 0 99 89 100 18 27 5 5 5 6 100 4 0 0 0 0 0 0 0 0 0 0 0 0 0 0 0 0 0 0 0 4 0 0 0 0 0 5 2 0 0 0 0